Location: Bismarck
(46.7731°N, 100.8200°W)
Time: 21:58:47
(UTC-05:00)

Landsat 7 - Visible Passes

Search period start: 20 April 2015 00:00
Search period end: 30 April 2015 00:00
Orbit: 702 x 703 km, 98.2° (Epoch: 20 April)

Date Brightness Start Highest point End Pass type
(mag) Time Alt. Az. Time Alt. Az. Time Alt. Az.
20 Apr 4.6 22:34:48 30° ESE 22:36:06 36° ENE 22:40:29 10° N visible
21 Apr 5.2 00:13:41 28° W 00:13:57 29° W 00:18:03 10° NW visible
21 Apr 5.9 21:39:29 10° E 21:41:37 13° ENE 21:43:56 10° NNE visible
21 Apr 3.7 23:17:58 64° SSE 23:18:44 88° ENE 23:23:31 10° NNW visible
22 Apr 6.3 00:56:51 11° W 00:57:17 11° W 00:58:45 10° WNW visible
22 Apr 4.9 22:22:16 23° E 22:23:57 29° ENE 22:28:04 10° N visible
23 Apr 4.8 00:01:09 36° WSW 00:01:38 37° W 00:06:02 10° NNW visible
23 Apr 6.0 21:28:51 10° ENE 21:29:33 10° NE 21:30:30 10° NE visible
23 Apr 3.8 23:05:26 51° SE 23:06:31 69° ENE 23:11:17 10° N visible
24 Apr 6.1 00:44:19 15° W 00:44:51 15° W 00:47:32 10° NW visible
24 Apr 5.2 22:09:43 17° E 22:11:49 23° ENE 22:15:35 10° NNE visible
24 Apr 4.4 23:48:36 44° SW 23:49:19 48° W 23:53:57 10° NNW visible
25 Apr 4.1 22:52:53 38° ESE 22:54:19 53° ENE 22:58:58 10° N visible
26 Apr 5.7 00:31:46 19° WSW 00:32:27 20° W 00:35:51 10° NW visible
26 Apr 5.5 21:57:11 12° E 21:59:42 19° ENE 22:03:01 10° NNE visible
26 Apr 4.1 23:36:03 50° SSW 23:37:03 63° W 23:41:47 10° NNW visible
27 Apr 4.4 22:40:21 29° ESE 22:42:08 41° ENE 22:46:37 10° N visible
28 Apr 5.4 00:19:14 24° WSW 00:20:04 25° W 00:23:59 10° NW visible
28 Apr 5.8 21:45:04 10° E 21:47:36 15° ENE 21:50:18 10° NNE visible
28 Apr 3.8 23:23:31 49° S 23:24:46 82° WSW 23:29:35 10° NNW visible
29 Apr 4.8 22:27:48 22° ESE 22:29:57 32° ENE 22:34:12 10° N visible
